Weather History for Tallahassee, FL

Change the Weather History Date:

Friday, December 7, 2012

  Actual Average Record
Temperature  
Mean Temperature 63 °F 55 °F  
Max Temperature 72 °F 67 °F 84 °F (2013)
Min Temperature 53 °F 43 °F 18 °F (1937)
Degree Days  
Heating Degree Days 2    
Month to date heating degree days 10  
Since 1 July heating degree days 268  
Cooling Degree Days 0    
Month to date cooling degree days 2  
Year to date cooling degree days 2960  
Growing Degree Days 14 (Base 50)    
Moisture  
Dew Point 56 °F    
Average Humidity 74    
Maximum Humidity 87    
Minimum Humidity 61    
Precipitation  
Precipitation 0.00 in 0.12 in 2.44 in (1996)
Month to date precipitation 0.00 0.90  
Year to date precipitation 56.04 56.23  
Sea Level Pressure  
Sea Level Pressure 30.01 in    
Wind  
Wind Speed 4 mph (ENE)    
Max Wind Speed 10 mph    
Max Gust Speed 14 mph    
Visibility 10 miles    
Events      
T = Trace of Precipitation, MM = Missing Value Source: NWS Daily Summary

Daily Weather History Graph

Daily Weather History Graph

Search for Another Location

Airport:

Trip Planner

Search our weather history database for the weather conditions in past years. The results will help you decide how hot, cold, wet, or windy it might be!

Date:

Astronomy

Dec. 07, 2012 Rise Set
Actual Time 7:21 AM EST 5:36 PM EST
Civil Twilight 6:55 AM EST 6:03 PM EST
Nautical Twilight 6:25 AM EST 6:32 PM EST
Astronomical Twilight 5:56 AM EST 7:02 PM EST
Moon 1:02 AM EST (12/7) 1:12 PM EST (12/7)
Length of Visible Light 11h 07m
Length of Day
10h 15m
Last Quarter, 39% of the Moon is Illuminated
Dec 7
Last Quarter
Dec 13
New
Dec 20
First Quarter
Dec 28
Full
Jan 4
Last Quarter

Hourly Weather History & Observations

Time (EST) Temp. Dew Point Humidity Pressure Visibility Wind Dir Wind Speed Gust Speed Precip Events Conditions
12:19 AM 62.6 °F 57.2 °F 82% 30.02 in 10.0 mi ENE 5.8 mph - N/A   Scattered Clouds
12:53 AM 63.0 °F 57.9 °F 84% 30.01 in 10.0 mi ENE 4.6 mph - N/A   Scattered Clouds
1:35 AM 62.6 °F 57.2 °F 82% 30.02 in 10.0 mi ENE 5.8 mph - N/A   Overcast
1:53 AM 63.0 °F 57.9 °F 84% 30.02 in 10.0 mi ENE 6.9 mph - N/A   Overcast
2:53 AM 63.0 °F 57.9 °F 84% 30.00 in 10.0 mi East 8.1 mph - N/A   Overcast
3:53 AM 63.0 °F 57.0 °F 81% 30.01 in 10.0 mi ENE 9.2 mph - N/A   Overcast
4:53 AM 63.0 °F 57.0 °F 81% 30.00 in 10.0 mi East 9.2 mph - N/A   Overcast
5:53 AM 63.0 °F 57.0 °F 81% 30.01 in 10.0 mi ENE 5.8 mph - N/A   Overcast
6:21 AM 62.6 °F 57.2 °F 82% 30.01 in 10.0 mi ENE 9.2 mph - N/A   Overcast
6:53 AM 62.1 °F 57.0 °F 84% 30.02 in 10.0 mi ENE 5.8 mph - N/A   Overcast
7:53 AM 62.1 °F 57.0 °F 84% 30.05 in 10.0 mi NE 6.9 mph - N/A   Overcast
8:53 AM 62.1 °F 57.0 °F 84% 30.06 in 10.0 mi East 9.2 mph - N/A   Overcast
9:53 AM 62.1 °F 57.0 °F 84% 30.06 in 10.0 mi ENE 6.9 mph - N/A   Overcast
10:53 AM 64.0 °F 57.0 °F 78% 30.05 in 10.0 mi ENE 4.6 mph - N/A   Overcast
11:51 AM 64.4 °F 57.2 °F 77% 30.04 in 10.0 mi Variable 3.5 mph - N/A   Overcast
11:53 AM 64.9 °F 57.0 °F 75% 30.04 in 10.0 mi Variable 3.5 mph - N/A   Overcast
12:53 PM 66.0 °F 57.0 °F 73% 30.02 in 10.0 mi Variable 4.6 mph - N/A   Overcast
1:21 PM 66.2 °F 57.2 °F 73% 30.01 in 10.0 mi Variable 3.5 mph - N/A   Overcast
1:53 PM 68.0 °F 57.0 °F 68% 29.99 in 10.0 mi ENE 5.8 mph - N/A   Mostly Cloudy
2:23 PM 68.0 °F 55.4 °F 64% 29.98 in 10.0 mi Variable 4.6 mph - N/A   Scattered Clouds
2:53 PM 71.1 °F 57.0 °F 61% 29.97 in 10.0 mi ENE 5.8 mph - N/A   Partly Cloudy
3:53 PM 71.1 °F 57.0 °F 61% 29.96 in 10.0 mi Calm Calm - N/A   Clear
4:53 PM 71.1 °F 57.0 °F 61% 29.97 in 10.0 mi Calm Calm - N/A   Clear
5:53 PM 66.9 °F 57.0 °F 70% 29.97 in 10.0 mi East 3.5 mph - N/A   Clear
6:53 PM 63.0 °F 55.9 °F 78% 29.98 in 10.0 mi Calm Calm - N/A   Clear
7:53 PM 59.0 °F 55.4 °F 88% 30.00 in 10.0 mi SSE 4.6 mph - N/A   Clear
8:53 PM 59.0 °F 55.0 °F 87% 30.00 in 10.0 mi Calm Calm - N/A   Clear
9:53 PM 57.0 °F 53.1 °F 87% 30.01 in 10.0 mi Calm Calm - N/A   Clear
10:53 PM 55.9 °F 51.1 °F 84% 30.02 in 10.0 mi Calm Calm - N/A   Clear
11:53 PM 54.0 °F 50.0 °F 86% 30.02 in 10.0 mi Calm Calm - N/A   Clear